Home > Weather > Foochow > Past weeks

Flag for China Past Weather in Foochow, Fujian, China — Yesterday and Last 2 Weeks

Now
84 °F

Broken clouds.


Feels Like: 92 °F
Forecast: 73 / 95 °F
Wind: 3 mph from North

Location: Fuzhou Airport

Current Time: Jun 30, 2016 at 11:13:28 AM

Latest Report: Jun 30, 2016 at 10:00 AM


Visibility: N/A

Pressure: 29.92 "Hg

Humidity: 74%

Dew Point: 75 °F

Location of FoochowLocation

Past Weather in Foochow — Graph

°F

Foochow Temperature Yesterday

Maximum temperature yesterday: 91 °F (at 1:00 PM)
Minimum temperature yesterday: 82 °F (at 12:00 AM)
Average temperature yesterday: 86 °F

High & Low Weather Summary for the Past Weeks

 TemperatureHumidityPressure
High93 °F (Jun 28, 1:00 PM)100% (Jun 17, 5:00 PM)29.92 "Hg (Jun 17, 5:00 PM)
Low73 °F (Jun 17, 2:00 AM)56% (Jun 28, 2:00 PM)29.59 "Hg (Jun 15, 4:00 PM)
Average83 °F82%29.78 "Hg
* Reported Jun 15 9:00 AM — Jun 30 9:00 AM, Foochow, Weather by CustomWeather, © 2016

Note: Actual official high and low records may vary slightly from our data, if they occured in-between our weather recording intervals... More about our weather records

Advertising

Foochow Weather History for the Previous 24 Hours

Scroll right to see more
 ConditionsComfort  
Time TempWeatherWind HumidityBarometerVisibility
9:00 AM
Thu, Jun 30
81 °FPartly sunny.3 mph84%29.92 "HgN/A
8:00 AM79 °FBroken clouds.3 mph89%29.92 "HgN/A
7:00 AM77 °FPartly sunny.3 mph89%29.92 "HgN/A
6:00 AM77 °FPartly sunny.1 mph89%29.92 "HgN/A
5:00 AM75 °FPassing clouds.6 mph94%29.92 "HgN/A
4:00 AM77 °FSprinkles. Passing clouds.8 mph94%29.89 "HgN/A
3:00 AM77 °FPassing clouds.8 mph94%29.92 "HgN/A
2:00 AM77 °FThunderstorms. Partly cloudy.10 mph94%29.92 "HgN/A
1:00 AM79 °FPassing clouds.13 mph89%29.92 "HgN/A
12:00 AM81 °FPassing clouds.15 mph84%29.92 "HgN/A
11:00 PM
Wed, Jun 29
82 °FPassing clouds.1 mph89%29.92 "HgN/A
10:00 PM82 °FClear.1 mph89%29.92 "Hg10 mi
9:00 PM82 °FClear.3 mph89%29.89 "Hg10 mi
8:00 PM84 °FClear.10 mph84%29.86 "Hg10 mi
7:00 PM84 °FPassing clouds.8 mph84%29.83 "HgN/A
6:00 PM86 °FPassing clouds.10 mph79%29.83 "HgN/A
5:00 PM88 °FPassing clouds.10 mph75%29.80 "HgN/A
4:00 PM88 °FPassing clouds.15 mph70%29.80 "HgN/A
3:00 PM91 °FPassing clouds.15 mph67%29.80 "HgN/A
2:00 PM91 °FScattered clouds.17 mph67%29.83 "HgN/A
1:00 PM91 °FPassing clouds.15 mph67%29.83 "HgN/A
12:00 PM90 °FScattered clouds.13 mph71%29.86 "HgN/A
11:00 AM90 °FScattered clouds.10 mph71%29.86 "HgN/A
Weather by CustomWeather, © 2016

See weather overviewHow to use our weather pages